Location: Unspecified
(49.8670°N, 0.0000°E)
Time: 06:09:42
(UTC+00:00)

Vanguard 1 - Pass Details

Date: 26 June 2019
Orbit: 653 x 3830 km, 34.3° (Epoch: 15 July)

Event Time Altitude Azimuth Distance (km) Brightness Sun altitude
Rises 04:48:25 0° 260° (W) 7,185 13.9 6.6°
Reaches altitude 10° 04:54:21 10° 254° (WSW) 5,690 13.4 7.4°
Maximum altitude 05:07:27 35° 197° (SSW) 2,819 12.2 9.3°
Drops below altitude 10° 05:15:18 10° 135° (SE) 3,392 13.2 10.5°
Sets 05:17:53 0° 126° (SE) 4,052 13.7 10.8°
